Date,TemperatureHighF,TemperatureAvgF,TemperatureLowF,DewpointHighF,DewpointAvgF,DewpointLowF,HumidityHigh,HumidityAvg,HumidityLow,PressureMaxIn,PressureMinIn,WindSpeedMaxMPH,WindSpeedAvgMPH,GustSpeedMaxMPH,PrecipitationSumIn
2013-1-1,48,46,42,48,41,30,100,85,52,30.12,29.94,13,4,13,0.28
2013-1-2,47,41,37,47,41,37,100,100,96,30.25,29.95,15,4,15,0.33
2013-1-3,44,37,28,40,36,28,100,98,83,30.35,30.17,9,3,9,0.00
2013-1-4,47,37,25,32,27,22,100,70,42,30.37,30.19,13,6,13,0.00
2013-1-5,50,38,27,32,26,22,85,65,39,30.42,30.27,12,4,12,0.00
2013-1-6,50,42,34,41,37,31,100,85,63,30.30,30.06,8,2,8,0.02
2013-1-7,51,42,33,35,33,30,99,73,53,30.49,30.23,13,5,13,0.00
2013-1-8,55,45,35,41,38,35,100,79,53,30.51,30.34,8,2,8,0.00
2013-1-9,67,49,35,54,45,35,100,90,59,30.48,30.27,10,2,10,0.00
2013-1-10,55,53,50,54,52,50,100,99,93,30.43,30.42,7,4,7,0.00
2013-1-11,44,43,42,43,43,42,100,100,100,30.39,30.38,5,3,5,0.40
2013-1-12,72,62,57,68,61,57,100,98,83,30.14,30.00,8,3,8,0.00
2013-1-13,74,62,53,68,60,53,100,94,68,30.13,29.95,13,5,13,0.00
2013-1-14,67,62,52,66,61,52,100,99,86,30.16,30.04,18,3,18,0.04
2013-1-15,52,44,41,52,44,41,100,100,100,30.29,30.11,21,9,21,0.26
2013-1-16,49,45,41,49,45,41,100,100,100,30.12,30.00,9,4,9,0.25
2013-1-17,50,44,31,49,44,31,100,100,93,30.20,29.93,32,10,32,1.36
2013-1-18,44,34,26,35,30,24,100,87,49,30.64,30.21,12,4,12,0.49
2013-1-19,54,38,23,35,30,23,100,77,43,30.62,30.21,13,4,13,0.20
2013-1-20,62,48,37,39,34,29,89,60,38,30.21,29.92,16,6,16,0.01
2013-1-21,59,45,32,34,30,18,87,57,32,30.15,29.84,13,5,13,0.00
2013-1-22,40,31,21,20,7,0,50,37,24,30.41,30.00,17,6,17,0.00
2013-1-23,38,26,13,18,12,2,99,58,34,30.48,30.13,12,3,12,0.00
2013-1-24,35,28,18,27,16,8,83,61,42,30.64,30.02,26,7,26,0.00
2013-1-25,26,21,14,26,16,7,100,84,50,30.64,30.18,12,3,12,0.01
2013-1-26,33,28,23,33,28,23,100,100,100,30.49,30.17,8,3,8,0.06
2013-1-27,39,29,21,33,26,21,100,92,68,30.65,30.48,12,3,12,0.06
2013-1-28,51,41,26,50,38,26,100,91,64,30.58,30.21,12,4,12,0.03
2013-1-29,72,58,48,60,54,48,100,87,62,30.21,29.98,12,6,12,0.00
2013-1-30,70,66,59,67,64,59,100,94,83,30.04,29.31,28,14,28,0.02
2013-1-31,66,49,44,66,38,21,100,68,37,29.90,29.31,26,13,26,0.41
2013-2-2,43,39,32,33,17,9,71,41,29,30.40,30.05,17,6,17,0.00
2013-2-3,48,40,31,37,31,24,100,73,44,30.04,29.83,18,6,18,0.00
2013-2-4,48,36,22,32,24,20,100,66,38,30.19,30.02,15,4,15,0.00
2013-2-5,59,45,36,37,33,28,91,65,41,30.05,29.81,10,4,10,0.00
2013-2-6,60,45,31,38,32,26,100,65,29,30.35,30.02,14,5,14,0.00
2013-2-7,47,40,33,44,38,33,100,92,76,30.39,30.03,18,9,18,0.28
2013-2-8,54,44,38,47,40,30,100,89,61,30.07,29.77,22,10,22,1.12
2013-2-9,51,39,29,31,24,18,86,57,30,30.43,30.06,15,6,15,0.00
2013-2-10,52,39,26,42,24,19,93,57,32,30.53,30.24,16,6,16,0.03
2013-2-11,62,54,43,62,54,41,100,100,92,30.24,29.86,14,6,14,0.05
2013-2-12,60,52,45,56,38,29,100,62,33,30.07,29.90,13,6,13,0.00
2013-2-13,47,44,41,46,43,37,100,96,67,29.96,29.63,13,4,13,0.42
2013-2-14,53,41,31,38,35,31,100,82,53,30.13,29.85,12,4,12,0.00
2013-2-15,62,43,28,44,35,28,100,78,36,30.15,29.86,12,4,12,0.00
2013-2-18,52,43,36,27,22,17,69,44,29,30.40,30.25,18,6,18,0.20
2013-2-19,52,42,32,52,40,27,100,93,69,30.31,29.84,20,7,20,0.07
2013-2-20,50,40,29,39,21,13,100,49,24,30.19,29.97,16,7,16,0.00
2013-2-21,53,39,22,28,21,17,97,52,30,30.31,30.06,12,4,12,0.00
2013-2-22,39,34,29,36,31,22,100,91,51,30.41,30.18,14,5,14,0.33
2013-2-23,43,39,34,42,39,34,100,100,100,30.18,29.83,13,4,13,0.71
2013-2-24,61,49,42,49,38,26,100,72,34,30.07,29.80,14,5,14,0.01
2013-2-25,43,36,30,30,26,22,82,67,52,30.27,30.07,20,7,20,0.00
2013-2-26,56,43,32,56,42,27,100,94,76,30.22,29.54,22,9,22,1.08
2013-2-27,60,48,41,48,42,38,100,81,47,29.76,29.63,16,6,16,0.00
2013-2-28,47,41,34,42,33,28,100,76,51,29.91,29.72,17,5,17,0.00
2013-3-1,48,39,27,33,30,26,100,72,49,29.95,29.83,13,5,13,0.00
2013-3-2,47,38,29,33,27,21,88,64,47,29.99,29.80,14,4,14,0.00
2013-3-3,45,34,27,25,22,18,78,61,43,30.06,29.82,18,7,18,0.00
2013-3-4,48,34,23,24,18,15,78,54,28,30.17,29.97,15,6,15,0.00
2013-3-5,53,41,29,45,34,22,100,79,40,30.15,29.63,16,5,16,0.62
2013-3-6,43,39,34,40,35,29,100,87,68,30.06,29.53,29,12,29,0.06
2013-3-7,49,40,33,35,32,28,93,72,53,30.27,30.06,16,8,16,0.00
2013-3-8,54,42,31,32,28,26,85,60,38,30.31,30.09,18,8,18,0.00
2013-3-9,61,46,34,34,30,27,79,56,32,30.35,30.15,15,5,15,0.00
2013-3-10,66,51,33,35,28,22,83,44,21,30.37,30.12,16,5,16,0.00
2013-3-11,69,56,39,55,46,28,100,74,47,30.25,29.91,20,9,20,0.00
2013-3-12,68,60,47,67,55,36,100,86,61,29.96,29.66,26,9,26,0.88
2013-3-13,48,44,41,36,35,33,76,72,65,30.03,29.96,10,5,10,0.00
2013-3-17,47,43,38,42,40,37,100,90,81,30.25,30.07,18,12,18,0.00
2013-3-18,41,38,35,41,38,35,100,100,100,30.26,29.91,20,7,20,0.18
2013-3-19,65,50,38,49,35,16,100,67,21,30.04,29.75,22,7,22,0.08
2013-3-20,56,46,33,27,17,7,63,34,22,30.15,29.82,14,5,14,0.00
2013-3-21,43,37,28,33,21,11,84,54,32,30.06,29.77,20,8,20,0.00
2013-3-22,51,35,20,25,17,13,90,52,25,30.17,29.92,14,5,14,0.00
2013-3-23,54,42,36,34,32,30,85,68,40,30.04,29.89,4,1,4,0.00
2013-3-24,39,36,33,39,35,30,100,95,79,30.01,29.63,23,8,23,0.88
2013-3-25,34,34,33,34,34,33,100,100,100,29.67,29.63,10,4,10,0.00
2013-3-28,55,49,40,29,27,24,56,42,33,30.33,30.09,17,8,17,0.00
2013-3-29,61,45,29,32,29,25,96,58,31,30.39,30.09,13,4,13,0.00
2013-3-30,68,52,35,46,34,27,84,54,29,30.26,29.99,12,4,12,0.00
2013-3-31,69,56,46,60,52,45,100,88,69,30.10,29.73,16,6,16,0.54
2013-4-1,70,59,50,55,48,36,100,71,37,29.99,29.69,17,6,17,0.03
2013-4-2,50,42,35,36,30,26,80,63,45,30.19,29.99,14,4,16,0.00
2013-4-3,60,52,43,32,24,20,62,34,24,30.33,30.13,13,5,13,0.00
2013-4-4,47,41,37,42,32,23,100,74,43,30.42,29.98,21,10,21,0.93
2013-4-5,62,47,38,50,43,38,100,89,55,30.06,29.81,15,5,20,0.10
2013-4-6,64,51,39,44,34,26,100,55,31,30.31,30.05,21,8,21,0.00
2013-4-7,73,54,32,48,40,31,100,63,38,30.35,30.00,22,5,22,0.00
2013-4-8,80,65,51,60,54,48,100,71,41,30.16,29.91,17,5,17,0.00
2013-4-9,86,70,55,64,58,54,100,70,40,30.16,29.91,14,4,14,0.00
2013-4-10,88,74,60,65,62,58,100,69,40,30.07,29.80,14,6,14,0.00
2013-4-11,82,71,61,70,63,59,100,78,49,29.96,29.72,18,7,18,0.00
2013-4-12,82,71,64,73,65,45,100,85,45,29.77,29.49,22,9,22,0.61
2013-4-13,75,63,52,48,44,39,78,51,33,30.03,29.73,12,5,12,0.00
2013-4-14,81,64,45,57,47,39,100,59,25,30.12,29.90,13,4,13,0.00
2013-4-15,70,62,56,62,58,53,100,86,67,30.21,30.03,24,7,24,0.03
2013-4-16,76,63,56,64,59,56,100,89,56,30.29,30.11,12,4,12,0.00
2013-4-17,84,69,56,68,63,56,100,84,54,30.23,29.99,12,4,12,0.00
2013-4-18,80,69,58,67,62,58,100,81,51,30.19,29.98,18,7,18,0.00
2013-4-19,81,72,64,70,67,64,100,87,66,30.04,29.63,31,11,31,0.02
2013-4-21,59,53,43,44,40,37,80,62,51,30.54,30.39,20,9,20,0.04
2013-4-22,59,47,35,48,41,35,100,82,55,30.56,30.26,20,10,20,0.00
2013-4-23,68,53,47,53,48,45,100,85,55,30.31,30.05,17,6,17,0.00
2013-4-24,77,60,45,59,54,45,100,82,49,30.18,29.90,16,4,16,0.00
2013-4-25,73,60,50,60,50,41,100,72,43,30.31,29.99,12,4,12,0.00
2013-4-26,72,58,43,52,44,37,100,68,31,30.42,30.25,15,4,15,0.00
2013-4-27,74,63,50,53,47,41,88,58,37,30.40,30.20,12,4,12,0.00
2013-4-28,62,57,53,59,51,43,100,81,60,30.27,30.13,13,5,13,0.53
2013-4-29,73,61,53,70,60,53,100,97,80,30.14,29.90,10,3,10,1.39
2013-4-30,65,60,56,63,59,56,100,98,88,30.18,30.01,12,6,12,0.01
2013-5-1,59,57,56,59,57,56,100,100,100,30.33,30.17,20,10,20,0.04
2013-5-2,61,57,52,60,57,52,100,99,95,30.35,30.24,16,8,16,0.01
2013-5-3,69,55,46,58,50,46,100,85,54,30.30,30.12,21,8,21,0.00
2013-5-4,61,53,47,56,51,47,100,93,80,30.27,30.07,21,11,21,0.00
2013-5-5,59,54,47,58,54,47,100,100,99,30.13,30.00,20,11,20,0.04
2013-5-6,65,59,54,65,59,54,100,100,100,30.03,29.79,20,8,20,1.04
2013-5-7,73,61,51,66,57,51,100,87,48,29.99,29.77,12,3,12,0.01
2013-5-8,74,56,50,61,55,50,100,96,64,30.00,29.86,12,2,12,0.03
2013-5-9,81,72,61,63,60,57,100,69,48,30.05,29.88,9,2,9,0.03
2013-5-10,87,72,55,66,62,55,100,74,44,30.07,29.83,18,3,18,0.00
2013-5-11,83,70,65,72,65,61,100,84,54,29.92,29.72,17,4,17,0.32
2013-5-12,72,64,51,64,53,38,100,72,39,30.07,29.78,10,5,10,0.01
2013-5-13,65,55,42,45,40,36,91,60,36,30.21,29.99,15,4,15,0.00
2013-5-14,72,56,38,52,43,36,100,65,34,30.32,30.05,9,2,9,0.00
2013-5-15,89,69,52,67,58,46,97,69,46,30.11,29.76,13,4,13,0.00
2013-5-16,85,73,60,68,64,60,100,74,49,29.96,29.79,9,3,9,0.00
2013-5-17,89,74,60,71,64,60,100,75,42,30.05,29.89,10,3,10,0.00
2013-5-18,80,68,62,73,67,62,100,96,73,30.15,30.04,10,4,10,0.80
2013-5-19,78,68,62,76,67,62,100,98,82,30.15,30.00,20,4,20,0.51
2013-5-20,79,69,65,78,69,65,100,100,85,30.10,29.97,10,4,10,0.28
2013-5-21,81,70,66,76,69,66,100,98,79,30.02,29.91,12,3,12,0.00
2013-5-22,86,74,67,73,70,67,100,89,62,29.99,29.81,18,4,18,0.04
2013-5-23,86,72,67,75,70,67,100,93,60,29.95,29.75,12,3,12,0.04
2013-5-24,69,63,51,67,55,41,100,78,48,30.23,29.81,14,6,14,0.05
2013-5-25,73,57,42,49,43,39,98,63,33,30.31,30.05,12,4,12,0.00
2013-5-27,83,70,48,60,56,48,100,64,40,30.31,30.06,14,4,14,0.00
2013-5-28,86,72,58,70,64,56,100,77,55,30.24,30.03,20,5,20,0.00
2013-5-29,87,74,60,70,66,60,100,79,51,30.23,30.04,14,4,14,0.00
2013-5-30,89,75,61,72,67,61,100,79,44,30.27,30.03,8,3,8,0.00
2013-5-31,90,77,64,75,69,64,100,79,46,30.21,29.97,10,3,10,0.00
2013-6-1,90,77,65,74,69,65,100,78,49,30.13,29.89,14,4,14,0.00
2013-6-2,89,77,65,72,69,65,100,80,52,30.02,29.79,20,5,20,0.03
2013-6-3,85,73,66,79,72,66,100,95,66,29.93,29.71,14,3,14,0.26
2013-6-4,79,70,64,67,65,61,100,85,62,30.10,29.93,17,5,17,0.01
2013-6-5,82,71,59,66,62,58,100,76,47,30.15,29.93,14,6,14,0.00
2013-6-6,73,68,63,73,67,59,100,98,75,30.05,29.80,15,7,15,0.81
2013-6-7,76,69,67,76,69,67,100,100,95,29.84,29.45,18,5,18,2.80
2013-6-8,85,73,65,77,70,65,100,92,65,30.08,29.80,10,2,10,0.02
2013-6-9,88,76,65,78,71,65,100,86,61,30.13,29.93,15,3,15,0.05
2013-6-10,84,74,69,81,73,69,100,98,77,30.08,29.80,18,6,18,1.15
2013-6-11,84,75,68,75,70,67,100,86,61,29.93,29.78,10,4,10,0.00
2013-6-12,90,76,64,77,70,64,100,85,61,29.96,29.75,8,3,8,0.00
2013-6-13,94,79,66,79,71,64,100,79,53,29.73,29.44,25,5,25,0.25
2013-6-14,77,67,60,67,62,58,100,88,57,30.03,29.73,12,4,12,0.08
2013-6-15,85,71,57,70,64,57,100,82,50,30.11,29.93,7,3,7,0.00
2013-6-16,87,75,62,74,67,58,100,80,59,30.11,29.88,12,3,12,0.00
2013-6-17,86,76,69,77,72,68,100,89,68,30.01,29.83,10,3,10,0.02
2013-6-18,85,73,66,77,72,66,100,96,74,29.93,29.68,16,3,16,1.10
2013-6-19,77,68,63,71,67,63,100,96,74,30.12,29.87,12,4,12,0.00
2013-6-20,80,70,62,67,64,56,100,81,58,30.26,30.11,13,6,13,0.00
2013-6-21,81,69,54,71,62,54,100,80,51,30.29,30.10,13,6,13,0.00
2013-6-22,71,68,66,71,68,66,100,100,100,30.21,30.15,12,6,13,0.00
2013-6-24,88,80,72,81,76,72,100,90,74,30.11,29.99,12,4,12,0.06
2013-6-25,85,73,68,78,72,68,100,97,79,30.10,29.97,7,3,7,0.00
2013-6-26,93,80,67,78,73,67,100,81,59,29.96,29.74,7,2,17,0.38
2013-6-27,89,76,66,79,73,66,100,91,67,29.92,29.59,6,2,12,0.00
2013-6-28,93,80,69,79,74,69,100,83,59,29.73,29.44,16,4,16,0.54
2013-6-29,88,79,69,80,75,65,100,89,68,29.70,29.54,12,3,12,1.70
2013-6-30,85,75,69,80,74,69,100,96,75,29.86,29.67,16,6,16,0.30
2013-7-1,82,74,68,80,73,68,100,97,82,29.97,29.83,17,6,17,2.08
2013-7-2,79,72,70,78,72,70,100,100,95,30.16,29.97,15,6,15,0.38
2013-7-3,86,76,71,81,75,71,100,97,74,30.22,30.10,18,6,18,0.06
2013-7-4,89,78,71,80,74,71,100,90,61,30.24,30.07,18,6,18,0.04
2013-7-5,91,79,70,79,74,70,100,88,59,30.24,30.04,15,5,15,0.01
2013-7-6,89,79,71,79,75,71,100,88,65,30.21,30.01,12,3,12,0.01
2013-7-7,90,78,68,79,74,67,100,89,67,30.17,29.93,13,2,13,0.01
2013-7-8,89,76,70,80,74,70,100,94,68,30.15,29.96,20,3,20,0.02
2013-7-9,91,76,70,82,74,70,100,95,68,30.14,29.93,20,3,20,0.01
2013-7-10,72,71,71,72,71,71,100,100,100,30.08,30.04,7,1,7,0.01
2013-7-22,88,82,74,82,78,74,100,89,73,29.85,29.71,10,3,10,0.10
2013-7-23,89,79,72,79,75,72,100,89,65,29.82,29.61,8,3,8,0.00
2013-7-24,94,80,70,80,74,70,100,83,51,29.83,29.60,15,3,15,0.00
2013-7-25,80,72,65,73,70,65,100,95,79,30.05,29.82,14,6,14,0.01
2013-7-26,88,73,60,71,66,60,100,81,51,30.11,29.92,9,3,9,0.00
2013-7-27,87,74,65,76,70,65,100,90,60,30.06,29.85,12,4,12,0.08
2013-7-28,89,77,68,78,73,68,100,89,57,29.97,29.80,13,3,13,0.01
2013-7-29,90,76,68,75,70,65,100,84,55,30.14,29.94,12,4,12,0.02
2013-7-30,88,74,62,74,68,62,100,83,52,30.22,30.02,9,3,9,0.00
2013-7-31,84,74,69,78,72,69,100,96,71,30.13,29.99,12,3,12,0.14
2013-8-1,72,69,68,71,69,68,100,100,100,30.01,29.93,12,2,12,0.21
2013-8-2,89,86,80,76,73,71,80,65,59,29.89,29.85,6,3,6,0.00
2013-8-3,86,74,69,80,73,69,100,96,78,29.95,29.81,9,2,9,0.24
2013-8-4,82,73,64,73,68,64,100,87,57,30.04,29.87,13,3,13,0.01
2013-8-5,84,72,60,70,65,60,100,82,53,30.09,29.91,10,3,12,0.00
2013-8-6,83,73,65,76,70,65,100,89,69,30.06,29.93,13,3,13,0.19
2013-8-7,89,77,66,74,71,66,100,84,56,30.08,29.91,14,4,14,0.00
2013-8-8,90,79,69,78,74,69,100,86,59,30.05,29.88,9,2,12,0.00
2013-8-9,93,81,72,80,76,72,100,87,63,30.01,29.83,12,2,12,0.00
2013-8-10,93,79,73,86,77,73,100,94,66,30.07,29.89,12,2,12,0.38
2013-8-11,95,80,71,80,76,71,100,88,56,30.08,29.85,1,0,1,0.01
2013-8-12,92,80,71,80,75,71,100,86,56,30.01,29.81,7,1,7,0.00
2013-8-13,88,77,69,82,75,69,100,94,70,29.96,29.67,13,2,13,0.57
2013-8-14,72,72,71,72,72,71,100,100,100,29.81,29.80,5,1,5,0.00
2013-8-16,71,67,62,65,63,60,100,86,71,30.20,30.10,12,4,12,0.00
2013-8-17,70,66,61,70,66,61,100,100,100,30.19,30.10,17,7,17,0.23
2013-8-18,80,71,65,76,70,65,100,96,81,30.21,30.07,10,4,10,0.02
2013-8-19,76,68,65,76,68,65,100,100,97,30.21,30.06,10,2,10,0.78
2013-8-20,83,73,65,77,72,65,100,95,79,30.16,30.04,8,2,8,0.18
2013-8-21,86,75,69,79,73,69,100,96,75,30.18,30.03,12,2,12,0.00
2013-8-22,91,76,68,79,72,68,100,89,58,30.13,29.85,15,3,15,0.10
2013-8-23,87,76,68,78,73,68,100,91,68,30.06,29.81,13,4,13,0.00
2013-8-24,81,71,62,68,64,59,100,83,51,30.32,30.06,17,8,17,0.00
2013-8-25,66,64,62,65,64,62,100,100,100,30.33,30.31,5,2,5,0.00
2013-8-26,86,75,62,66,63,59,100,70,42,30.21,30.03,9,3,9,0.00
2013-8-27,90,73,60,77,69,60,100,88,60,30.15,29.83,6,3,6,0.00
2013-8-28,81,74,67,79,73,67,100,99,87,29.97,29.83,5,2,5,1.07
2013-8-29,85,77,73,78,75,72,100,92,73,29.89,29.80,16,6,16,0.00
2013-8-30,90,80,69,72,70,66,100,74,48,29.96,29.82,10,3,10,0.43
2013-8-31,90,77,65,77,72,65,100,86,59,29.97,29.75,14,3,14,0.00
2013-9-1,90,76,69,81,74,69,100,94,68,29.89,29.67,13,3,13,3.40
2013-9-2,89,77,68,82,74,68,100,91,67,29.85,29.67,8,2,8,0.01
2013-9-3,86,74,69,83,74,69,100,98,80,29.93,29.70,12,2,12,0.75
2013-9-4,78,70,67,69,68,66,100,95,74,30.03,29.93,16,5,16,0.00
2013-9-11,91,80,70,76,73,70,100,80,53,30.13,29.99,12,3,12,0.00
2013-9-12,71,68,67,70,68,67,100,100,100,30.07,30.03,5,2,5,0.00
2013-9-14,77,67,57,58,54,48,99,67,48,30.19,29.95,20,5,20,0.00
2013-9-15,81,65,50,65,59,50,100,83,53,30.27,30.04,12,3,12,0.00
2013-9-16,86,71,62,78,66,62,100,87,50,30.20,29.92,17,4,17,0.27
2013-9-17,74,64,56,64,57,53,100,81,51,30.35,30.19,20,7,20,0.00
2013-9-18,76,60,49,59,54,49,100,85,50,30.37,30.10,12,4,12,0.00
2013-9-19,77,64,54,65,60,54,100,87,55,30.25,30.04,7,1,7,0.00
2013-9-20,74,66,60,71,65,60,100,97,84,30.12,29.95,12,3,12,0.41
2013-9-21,75,68,64,74,68,64,100,99,93,29.98,29.71,12,5,12,0.74
2013-9-22,76,66,57,66,62,57,100,88,60,29.94,29.70,24,7,24,0.56
2013-9-23,72,60,53,59,56,52,100,86,61,30.13,29.94,15,5,17,0.00
2013-9-24,77,61,51,64,57,51,100,88,60,30.15,29.89,7,2,7,0.00
2013-9-25,75,62,51,67,59,51,100,92,63,30.01,29.84,9,2,9,0.00
2013-9-26,74,64,55,64,60,54,100,87,50,30.08,29.87,13,4,13,0.00
2013-9-27,72,61,54,65,58,54,100,91,65,30.23,30.07,17,5,17,0.00
2013-9-28,71,60,52,61,56,52,100,90,67,30.27,30.13,14,6,14,0.00
2013-9-29,73,60,52,63,56,52,100,88,56,30.23,29.96,16,4,16,0.00
2013-9-30,77,62,53,66,57,53,100,88,55,30.13,29.92,12,3,12,0.00
2013-10-1,85,65,51,68,60,51,100,86,51,30.17,29.89,5,2,5,0.00
2013-10-2,85,68,57,70,63,57,100,85,51,30.13,29.92,7,2,7,0.00
2013-10-3,87,70,57,72,64,57,100,84,51,30.15,29.94,12,2,12,0.00
2013-10-4,88,71,60,72,66,60,100,87,51,30.14,29.92,9,1,9,0.00
2013-10-5,90,74,61,74,67,61,100,84,47,30.13,29.90,10,2,10,0.00
2013-10-6,82,71,62,76,69,61,100,94,72,30.08,29.87,16,5,16,0.00
2013-10-7,75,69,64,75,69,64,100,100,100,30.01,29.84,20,5,20,0.22
2013-10-8,64,58,56,64,53,50,100,83,74,30.23,29.99,21,11,21,0.03
2013-10-9,60,56,53,60,56,53,100,96,87,30.22,30.12,21,10,21,0.22
2013-10-10,59,54,53,59,54,53,100,100,100,30.12,29.97,20,8,21,0.02
2013-10-11,64,60,57,64,60,57,100,100,100,29.99,29.92,5,2,12,0.07
2013-10-12,67,63,60,67,63,60,100,100,100,30.09,29.97,7,2,12,0.00
2013-10-13,65,62,60,65,62,60,100,100,100,30.21,30.09,9,5,15,0.15
2013-10-14,63,61,56,63,61,56,100,100,100,30.26,30.19,9,6,17,0.06
2013-10-15,68,60,52,65,59,52,100,97,85,30.24,30.05,9,3,15,0.00
2013-10-16,70,64,59,67,63,59,100,98,88,30.08,29.94,5,1,9,0.00
2013-10-17,75,66,58,70,64,58,100,95,75,30.01,29.81,5,1,7,0.00
2013-10-18,69,62,53,67,57,50,100,85,58,30.05,29.87,7,2,12,0.00
2013-10-19,70,62,58,69,62,58,100,100,96,30.03,29.81,6,2,12,0.01
2013-10-20,63,53,44,59,48,42,100,84,50,30.22,29.94,7,2,14,0.01
2013-10-21,68,52,39,54,47,39,100,86,51,30.26,29.99,5,1,9,0.01
2013-10-22,64,56,49,62,56,49,100,99,92,30.08,29.85,3,0,7,0.00
2013-10-23,65,57,47,58,50,38,100,81,48,30.05,29.67,8,3,12,0.01
2013-10-24,58,49,36,42,38,35,100,67,48,30.27,30.05,10,3,10,0.00
2013-10-25,54,44,34,38,35,30,100,74,44,30.47,30.25,16,4,16,0.00
2013-10-26,59,42,27,42,34,27,100,77,41,30.47,30.09,12,2,12,0.00
2013-10-27,67,52,43,46,43,39,100,73,45,30.20,29.98,10,2,10,0.00
2013-10-28,72,55,42,57,51,42,100,87,52,30.28,30.11,7,1,7,0.00
2013-10-29,72,58,50,60,55,50,100,91,63,30.34,30.17,9,2,9,0.00
2013-10-30,71,60,52,65,58,52,100,94,72,30.32,30.10,9,2,9,0.00
2013-10-31,74,64,55,66,60,55,100,88,65,30.20,29.91,17,4,17,0.00
2013-11-1,70,67,61,69,67,61,100,99,92,29.91,29.67,23,7,23,1.49
2013-11-2,70,61,53,61,54,42,100,81,48,29.95,29.66,9,3,13,0.03
2013-11-3,61,51,41,44,40,38,88,69,50,30.44,29.97,8,3,16,0.00
2013-11-4,53,43,36,38,35,33,94,74,50,30.62,30.45,9,4,18,0.00
2013-11-5,55,47,37,54,45,35,100,92,81,30.61,30.45,8,4,14,0.00
2013-11-6,70,56,44,59,53,44,100,91,64,30.47,30.13,6,3,10,0.00
2013-11-7,68,59,45,67,55,35,100,87,55,30.16,29.86,7,3,14,0.10
2013-11-8,55,45,35,35,32,28,83,62,39,30.40,30.17,8,3,15,0.00
2013-11-9,57,45,32,40,34,28,94,68,43,30.46,30.23,7,2,14,0.00
2013-11-10,70,54,40,45,38,29,99,60,34,30.28,29.98,8,4,15,0.00
2013-11-11,57,44,30,42,33,29,100,68,39,30.43,30.19,7,1,12,0.00
2013-11-12,58,42,33,43,34,21,100,77,49,30.50,30.08,10,4,26,0.01
2013-11-13,44,34,23,24,21,18,100,63,37,30.60,30.46,18,4,18,0.00
2013-11-14,58,38,21,35,25,21,100,67,30,30.59,30.31,12,2,12,0.00
2013-11-15,63,47,28,52,38,25,95,74,44,30.44,30.19,6,2,6,0.00
2013-11-16,62,55,50,61,55,50,100,100,92,30.27,30.18,10,4,10,0.00
2013-11-17,71,60,52,65,59,52,100,96,78,30.23,29.87,13,5,13,0.05
2013-11-18,73,64,52,67,53,33,100,72,41,29.99,29.71,17,6,17,0.03
2013-11-19,54,47,39,33,31,28,76,55,42,30.39,29.99,20,6,20,0.00
2013-11-20,50,43,35,41,34,29,95,74,59,30.50,30.38,17,9,17,0.00
2013-11-21,59,48,39,52,46,39,100,91,73,30.54,30.36,13,5,13,0.00
2013-11-22,69,58,45,63,56,45,100,95,80,30.43,30.06,12,3,12,0.02
2013-11-23,60,54,40,60,44,22,100,73,41,30.24,30.02,15,5,15,0.02
2013-11-24,40,30,20,26,11,5,69,45,29,30.67,30.24,20,6,20,0.00
2013-11-25,42,30,15,20,12,8,95,51,27,30.70,30.46,12,3,12,0.01
2013-11-26,64,44,33,64,38,17,100,81,49,30.47,29.53,23,8,23,1.02
2013-11-27,56,39,28,56,37,21,100,95,75,30.25,29.53,15,8,15,1.29
2013-11-28,43,30,20,27,22,18,100,75,45,30.60,30.25,12,4,12,0.00
2013-11-29,47,34,21,31,26,21,100,75,45,30.74,30.53,16,5,16,0.00
2013-11-30,47,34,25,36,30,25,100,87,66,30.74,30.46,14,6,14,0.00
2013-12-1,58,41,26,43,33,26,100,79,42,30.46,30.07,10,2,10,0.00
2013-12-2,59,44,34,48,40,34,100,88,56,30.12,29.80,9,2,9,0.00
2013-12-3,59,46,32,50,43,32,100,88,65,30.02,29.91,12,3,12,0.00
2013-12-4,63,56,51,61,55,49,100,99,92,30.10,29.96,9,3,9,0.00
2013-12-5,66,60,54,65,60,53,100,100,100,30.13,30.00,13,4,13,0.06
2013-12-6,78,69,63,69,66,63,100,91,68,30.02,29.87,20,8,20,0.00
2013-12-7,67,46,40,67,44,33,100,92,76,30.52,29.96,22,11,22,0.20
2013-12-8,40,33,30,34,32,30,100,94,75,30.56,30.37,18,9,18,0.16
2013-12-9,44,38,32,44,38,32,100,100,100,30.37,30.11,10,3,10,0.24
2013-12-10,45,41,26,45,39,24,100,96,72,30.44,29.98,16,5,16,0.64
2013-12-11,49,34,20,32,26,20,100,77,40,30.56,30.31,10,3,10,0.00
2013-12-12,43,32,22,30,22,10,100,70,27,30.50,30.35,14,4,14,0.00
2013-12-13,50,34,20,31,24,20,100,72,33,30.50,30.25,12,3,12,0.00
2013-12-14,46,40,36,42,36,29,100,87,58,30.37,29.84,17,6,17,1.15
2013-12-15,53,41,29,47,37,28,100,85,55,30.17,29.76,17,6,17,0.04
2013-12-16,54,39,26,39,33,26,100,83,51,30.24,30.06,10,3,10,0.00
2013-12-17,62,45,31,46,38,31,100,79,44,30.21,29.89,20,5,20,0.00
2013-12-18,47,37,27,39,26,20,94,65,37,30.40,30.08,12,5,12,0.00
2013-12-19,61,43,26,32,28,24,98,61,28,30.39,30.15,16,4,16,0.00
2013-12-20,66,53,40,58,47,31,100,81,61,30.30,30.05,15,4,15,0.00
2013-12-21,74,60,49,68,58,49,100,94,70,30.17,29.96,20,7,20,0.00
2013-12-22,78,69,63,72,67,63,100,93,71,30.09,29.93,21,9,21,0.32
2013-12-23,65,59,46,65,59,44,100,100,94,30.19,29.97,18,6,18,1.57
2013-12-24,46,39,26,45,31,16,100,76,56,30.57,30.17,18,7,18,0.02
2013-12-25,40,27,20,21,16,12,100,68,36,30.65,30.47,13,4,13,0.00
2013-12-26,51,35,21,33,28,20,100,78,43,30.54,30.23,9,3,9,0.01
2013-12-27,53,38,29,28,24,21,87,60,33,30.52,30.35,10,3,10,0.00
2013-12-28,59,42,24,37,30,24,100,68,31,30.52,30.19,8,2,8,0.00
2013-12-29,62,48,41,62,46,34,100,95,60,30.19,29.65,20,6,20,1.87
2013-12-30,52,44,34,50,41,34,100,90,71,30.18,29.99,7,3,7,0.00
2013-12-31,49,39,30,40,32,24,100,78,38,30.46,30.17,13,4,13,0.01
2014-1-1,51,37,27,32,28,26,100,75,39,30.51,30.21,12,2,12,0.00
2014-1-2,47,42,36,46,39,31,100,91,75,30.21,29.63,15,3,15,0.38